RH
12 12 12 13 26 34 42 77 88 73 63 53 56 70 84 90 98 99 95 101 99 99 101 98 99 101 99 102 101 86 74 62 56 68 76 70 58 46 43 44 44 49 53 44 39 45 46 35 22 12 10 35 59 48 24 10 11 9 7 13 17 19 20 22 21 21 22 23 23 22 22 19 19 19 19 20 20 33 43 40 43 48 48 41 39 49 51 57 64 71 90 101 100 97 94 88 91
12 12 11 13 27 36 41 67 74 56 53 62 72 77 88 98 99 98 100 99 99 100 99 100 100 100 100 102 103 93 80 60 51 61 66 60 51 47 46 51 50 48 47 38 40 45 42 33 20 11 11 38 61 41 16 10 9 7 10 16 17 19 20 21 20 23 23 22 22 20 18 15 14 12 17 26 32 37 45 52 45 38 35 32 41 53 50 47 51 72 98 102 100 99 96 92 94
11 13 11 14 21 25 30 37 43 55 70 79 87 89 88 96 98 93 98 99 95 97 99 100 101 102 99 102 104 87 72 56 45 45 45 44 45 46 51 59 54 48 45 36 37 37 34 29 19 12 11 41 59 31 12 8 7 9 14 17 18 20 20 21 22 23 21 22 21 17 14 12 11 13 24 31 39 36 37 50 34 22 26 29 40 43 36 37 54 83 102 100 101 102 100 101 95
10 13 11 14 17 16 21 22 37 69 86 81 85 91 82 88 100 90 91 100 96 98 101 100 100 102 98 104 95 61 50 50 40 37 37 40 42 45 54 61 52 47 44 35 33 30 30 25 18 12 13 47 55 22 9 6 8 12 15 19 19 20 20 22 23 22 21 23 20 19 18 17 13 14 23 22 32 43 46 46 24 15 22 25 28 28 29 41 67 92 103 99 102 104 99 101 92
10 12 12 13 15 16 19 21 39 72 88 87 90 93 83 85 101 98 96 100 100 101 100 100 100 100 102 101 75 44 47 47 36 37 43 41 40 47 55 57 51 46 39 32 31 28 26 21 17 10 18 53 47 14 7 6 11 14 17 20 19 20 21 24 23 21 23 25 26 27 27 25 19 13 15 16 21 34 44 37 19 17 20 23 24 26 35 57 86 98 101 103 101 96 89 90 93
11 11 13 12 13 16 20 26 39 67 88 95 100 102 93 85 93 100 99 97 98 101 99 101 103 101 97 82 55 44 49 44 41 43 43 39 39 50 55 56 56 48 38 33 29 27 24 19 16 10 27 55 36 8 6 8 14 16 18 20 19 22 23 26 22 21 27 32 33 33 39 41 28 14 14 18 16 16 26 27 21 20 20 23 24 25 36 62 93 99 97 101 95 87 87 89 94
12 12 13 12 14 17 26 33 42 74 93 95 101 103 95 84 92 101 98 96 96 98 100 102 102 96 86 72 55 49 50 50 52 46 38 36 40 48 49 50 54 49 41 33 26 25 23 20 15 13 37 53 24 5 7 11 16 17 19 19 20 23 24 27 21 22 32 37 37 36 51 56 33 17 17 18 16 13 15 20 24 24 22 22 22 26 35 52 74 87 93 97 93 92 98 101 101
13 13 14 14 16 25 40 37 45 88 100 96 99 100 94 83 91 100 100 102 100 99 98 102 106 99 87 80 68 57 54 52 48 41 37 37 42 44 42 44 47 45 39 31 23 23 25 21 13 21 49 45 13 5 10 13 17 18 18 20 22 23 26 26 20 24 36 40 41 41 51 57 42 27 27 24 18 17 15 16 22 25 29 28 27 31 39 49 57 68 80 89 96 100 101 96 96
14 14 15 15 17 33 58 46 46 90 102 97 97 98 99 91 94 98 101 100 98 102 100 103 102 91 88 84 70 56 52 48 44 41 41 41 43 42 41 45 44 43 38 29 21 23 29 21 16 37 56 33 6 8 11 15 17 17 19 22 23 24 28 25 19 26 37 41 41 43 45 52 52 43 40 37 25 21 20 17 18 20 25 29 31 34 40 46 50 54 58 66 73 77 76 68 72
15 15 15 16 16 28 57 49 43 86 101 87 88 99 100 94 99 99 100 100 98 102 100 99 87 81 92 87 67 55 53 52 49 46 44 42 43 42 45 50 45 42 36 27 20 24 31 21 26 53 53 20 5 10 12 16 16 17 21 23 23 25 29 24 19 26 35 39 39 38 37 41 53 57 52 48 39 32 27 19 18 19 19 22 25 27 31 35 40 43 44 47 49 48 48 45 46
16 16 15 15 17 22 46 47 33 64 84 75 82 95 90 87 100 103 102 100 97 100 103 96 77 78 93 89 72 60 57 56 53 52 50 46 44 44 50 52 46 39 32 26 20 25 32 25 42 62 43 12 7 12 14 16 16 19 23 23 24 27 28 23 19 26 35 37 34 32 30 30 46 65 65 59 54 49 45 31 19 21 21 21 22 23 25 28 30 31 32 34 33 32 33 34 35
18 17 16 15 17 21 37 43 27 37 55 67 84 84 82 92 103 101 94 94 97 102 103 85 65 66 76 79 72 64 60 60 60 60 58 53 48 49 51 49 44 37 31 26 21 30 34 32 56 63 31 8 9 13 14 16 17 21 23 23 26 28 26 22 19 23 34 36 33 31 28 26 39 68 81 78 71 64 66 55 32 24 24 23 24 26 27 30 31 31 34 34 38 45 47 48 50
18 17 18 16 17 18 23 28 22 28 34 54 88 84 70 73 83 83 77 90 102 99 84 62 54 62 73 75 69 66 60 62 74 74 66 54 47 49 48 46 44 38 33 25 23 36 34 39 67 57 19 7 12 14 15 17 19 22 23 25 27 28 24 21 18 21 32 35 35 33 31 28 37 71 93 95 91 81 80 79 61 35 25 25 23 25 25 28 30 31 35 41 58 67 65 69 67
18 17 18 17 17 16 16 17 15 26 30 46 87 93 73 60 72 82 82 98 101 89 71 48 47 64 79 76 68 64 51 53 75 82 66 50 45 45 44 47 50 44 34 25 32 41 32 50 72 45 13 9 13 15 16 17 20 23 24 27 27 26 23 19 17 19 29 34 36 38 37 32 41 78 99 101 100 94 90 90 86 55 26 22 20 20 20 22 25 27 30 40 62 76 80 84 68
18 17 18 16 17 15 15 17 14 22 32 60 94 99 94 82 83 94 96 105 95 76 65 54 54 63 67 60 54 51 44 46 68 83 66 52 50 42 44 54 57 52 42 37 45 40 34 62 69 33 10 11 15 16 17 18 20 24 26 28 26 24 22 18 16 19 26 32 36 41 44 35 48 86 102 102 100 100 97 88 93 72 31 23 20 17 17 17 19 19 24 39 62 81 83 68 45
18 17 17 16 16 15 15 17 17 20 30 74 105 95 97 98 93 96 100 107 98 79 72 67 60 55 50 49 53 52 55 64 81 85 61 51 49 44 57 67 64 60 57 55 48 35 43 71 59 23 10 12 17 17 18 20 22 26 27 26 24 23 20 16 15 19 25 31 36 41 45 37 51 89 104 106 103 101 98 85 89 68 31 26 23 18 18 16 17 15 18 29 45 55 48 32 27
18 17 17 16 15 15 15 16 17 21 28 61 95 90 87 100 100 97 102 105 100 88 77 70 58 47 50 59 65 68 76 85 84 65 46 45 47 58 74 71 62 62 67 59 42 36 56 73 48 18 11 14 17 18 20 22 26 28 26 25 23 22 18 16 16 20 26 30 35 36 38 39 56 92 105 104 98 90 85 73 63 42 24 24 20 17 18 15 16 16 16 17 21 22 19 17 22
17 17 16 15 16 14 14 16 15 19 24 36 70 87 78 87 96 98 105 96 89 81 63 59 50 41 54 71 82 88 91 90 77 52 41 35 43 70 69 59 59 66 74 55 37 44 64 69 39 14 12 16 18 19 22 25 28 27 25 24 22 20 15 14 17 22 26 28 30 29 36 45 63 96 106 99 82 60 55 50 35 21 19 19 15 15 15 15 15 15 16 16 16 17 17 18 19
16 16 16 15 15 15 13 15 16 19 24 23 46 69 62 63 67 70 82 77 70 59 43 43 42 49 73 91 96 90 77 73 65 46 34 26 50 75 55 51 60 65 72 51 41 52 67 65 31 12 13 17 19 20 25 28 28 25 25 23 20 18 12 12 18 23 24 24 27 29 37 51 74 98 95 80 55 34 39 41 28 20 18 16 15 16 14 15 16 16 18 18 19 20 20 21 21
15 15 15 15 13 14 13 12 17 19 22 23 32 43 43 45 43 41 51 55 52 42 36 35 41 66 86 93 91 72 50 46 44 36 29 29 54 64 46 53 57 58 60 45 46 54 66 60 23 11 15 18 20 22 28 27 27 25 23 22 18 15 12 12 15 21 22 22 27 28 36 57 76 74 56 44 32 30 42 37 26 21 17 16 16 17 18 20 21 23 25 26 27 27 28 27 27
13 13 12 14 13 12 12 11 15 17 21 26 28 32 34 43 48 41 37 39 41 36 33 34 52 79 87 88 79 52 38 37 36 31 29 35 48 49 42 47 49 55 51 39 44 51 65 54 17 11 16 18 21 24 28 27 26 24 21 19 15 14 16 14 13 19 21 22 23 21 39 63 61 39 26 28 28 34 38 27 22 21 18 18 21 24 28 31 33 36 36 38 39 38 37 34 33
9 10 10 10 11 10 11 11 12 15 23 26 29 37 37 43 47 35 32 35 33 33 36 47 72 87 85 78 56 35 35 34 34 35 37 45 45 35 29 35 46 54 48 38 34 46 66 46 13 14 17 19 23 26 28 27 25 22 20 16 14 20 22 18 16 18 19 19 15 20 46 57 41 25 25 28 28 33 30 22 21 21 23 27 32 36 37 39 39 40 42 44 44 45 43 40 36
7 7 8 8 8 9 9 10 11 13 19 21 26 33 29 33 32 23 31 32 29 42 47 49 58 59 56 52 40 39 41 38 43 47 45 39 27 21 24 39 50 49 48 37 24 45 63 33 11 15 17 20 24 27 27 25 24 21 18 14 17 23 21 18 17 16 16 15 16 30 47 40 29 28 29 28 28 29 24 21 22 26 33 36 38 38 37 38 38 39 41 43 45 45 44 40 36
7 7 7 7 7 8 8 9 9 10 13 12 17 20 16 21 20 18 28 27 38 54 40 28 31 34 39 40 40 45 49 49 48 39 29 19 16 24 34 47 55 52 48 31 23 49 53 22 12 16 18 22 25 26 25 23 23 19 15 13 17 18 17 17 16 17 18 22 30 38 37 30 30 29 28 29 26 25 23 23 27 32 35 35 36 36 36 37 38 40 42 43 44 43 41 38 35
7 7 7 7 7 7 7 8 8 9 10 10 11 11 13 17 14 18 27 33 54 52 25 17 25 34 40 38 39 45 50 43 31 21 17 18 21 28 39 54 62 58 45 29 34 52 39 14 13 18 20 23 25 25 22 22 21 17 13 13 16 16 17 18 17 18 19 27 38 37 33 32 30 27 30 31 25 23 25 26 30 32 33 33 34 34 35 36 37 40 41 43 42 41 39 37 35
9 9 8 8 8 7 7 7 8 8 8 10 12 12 13 12 13 21 30 46 62 42 17 16 24 36 38 38 44 44 36 23 18 17 20 33 41 43 51 58 55 49 39 35 47 47 24 11 15 19 22 24 24 22 21 22 20 15 13 15 17 18 19 19 19 19 21 29 36 35 33 33 28 26 31 29 23 24 26 29 31 32 32 32 32 32 33 33 35 39 39 40 40 39 38 35 33
10 11 11 11 12 12 12 12 11 11 12 12 17 22 17 13 17 24 39 60 62 35 15 13 22 36 34 42 53 38 22 20 22 20 32 59 66 57 51 43 38 39 40 46 52 34 13 13 17 19 23 23 22 20 21 22 18 14 15 18 19 19 18 19 20 21 27 33 34 33 30 28 29 30 30 25 23 27 29 31 32 32 32 31 32 32 31 32 34 37 37 36 36 36 35 33 32
10 10 10 12 13 14 15 16 18 18 21 20 24 32 27 22 21 29 53 67 52 28 16 11 22 36 38 49 51 34 24 23 22 27 56 84 70 47 36 31 34 40 48 54 44 21 10 15 17 20 23 21 20 20 22 21 17 15 17 20 20 19 17 18 22 24 30 35 32 30 28 28 31 31 28 26 28 30 31 31 31 32 34 34 34 31 30 31 33 35 35 34 34 34 33 32 31
11 11 10 11 11 12 12 14 19 20 22 23 31 46 47 39 29 39 62 58 38 27 17 11 21 35 41 40 31 27 29 24 25 39 72 88 59 34 32 33 37 44 54 52 32 13 11 16 17 22 21 18 20 21 22 19 15 16 19 21 19 18 19 19 24 28 32 34 31 29 29 29 31 31 29 30 32 32 31 32 34 36 37 38 36 33 31 29 30 33 33 32 32 33 33 33 32
12 12 11 11 10 10 10 12 15 15 16 15 24 47 61 58 49 51 52 35 29 28 17 12 19 28 32 24 16 26 32 30 41 55 74 75 46 32 35 36 39 47 52 42 22 10 12 16 19 22 20 17 20 21 21 17 15 18 20 20 18 19 20 20 23 30 33 32 32 31 28 27 31 33 33 32 33 33 34 37 41 43 43 43 41 39 35 31 30 30 32 32 32 32 32 32 32
12 12 11 11 11 10 9 10 11 10 12 10 13 27 41 46 45 39 26 20 27 26 17 13 13 16 17 15 18 29 34 44 63 70 70 58 35 32 36 36 43 46 43 30 14 10 13 17 20 21 18 18 20 21 19 16 16 20 21 19 18 18 19 19 23 30 33 30 32 32 27 29 32 33 32 34 34 35 39 43 46 47 48 48 48 46 42 37 33 31 32 32 32 33 33 36 40
12 12 12 11 11 11 10 10 10 9 10 10 10 13 16 19 22 19 14 19 21 20 20 13 8 10 9 12 18 29 43 60 79 74 59 44 31 32 37 39 42 38 30 19 10 11 14 16 20 20 17 18 20 20 17 15 18 21 21 19 17 17 17 19 22 26 29 29 31 30 29 33 33 31 33 36 37 37 40 43 45 46 48 49 49 50 48 45 42 39 36 35 36 37 39 43 47
13 13 12 11 11 11 11 10 10 10 9 9 10 11 12 12 15 16 17 17 14 17 21 11 9 10 10 16 21 38 57 68 82 75 48 35 31 31 34 36 33 27 20 12 9 12 14 16 19 19 17 18 19 19 16 15 19 21 20 19 17 17 16 19 24 25 26 29 30 30 34 37 33 31 35 35 35 37 39 40 42 43 44 45 46 47 48 48 47 46 44 41 42 42 42 43 44
13 12 12 11 11 11 12 11 11 10 10 10 10 11 12 13 14 15 15 14 11 16 17 11 12 14 17 26 27 41 56 60 83 89 54 30 29 27 26 25 24 22 15 9 11 13 14 16 18 18 17 18 19 18 16 16 20 21 20 19 17 16 15 19 25 27 27 29 30 32 37 38 34 36 40 38 34 34 37 37 38 39 39 41 43 44 44 44 44 44 44 43 42 40 39 38 39
11 11 11 11 11 11 12 11 11 11 11 10 10 11 12 13 14 14 13 13 12 13 13 11 13 18 30 34 24 27 37 44 76 99 70 32 24 23 18 18 21 19 12 10 13 13 14 16 17 18 18 18 19 17 16 17 20 20 19 19 17 16 16 18 24 27 28 29 29 31 37 40 41 43 42 39 35 33 35 35 34 35 34 35 36 37 37 36 36 37 37 37 37 37 37 37 36
11 11 11 11 11 12 12 12 11 11 12 11 11 11 11 13 14 13 12 11 12 12 14 15 13 22 37 35 21 16 22 34 62 93 81 38 22 21 15 16 20 17 11 12 15 12 14 17 16 17 18 18 19 17 17 18 20 20 19 18 17 17 16 18 22 24 26 26 27 29 34 42 47 47 45 43 38 34 33 33 32 32 32 31 31 31 31 31 31 30 30 30 31 33 34 36 37
12 12 11 12 12 12 12 12 12 11 12 11 11 12 11 12 14 14 12 11 12 11 16 21 18 27 40 32 19 13 15 30 58 86 77 41 25 21 16 18 18 14 12 15 15 12 15 17 16 17 18 18 18 18 18 18 20 19 19 18 18 17 17 19 22 25 28 28 28 30 34 42 48 47 47 46 40 34 32 32 32 31 30 30 30 29 29 29 29 28 27 26 27 29 29 33 36
13 13 12 13 13 13 12 13 13 12 12 11 11 12 11 12 13 13 13 11 12 12 15 22 22 28 36 28 18 13 12 25 57 83 71 43 30 21 18 20 16 13 14 16 14 12 15 16 16 18 18 18 18 18 18 18 19 18 18 19 18 18 18 20 24 30 36 37 34 34 38 43 44 42 40 39 36 32 32 32 31 31 30 29 29 29 28 27 27 27 26 26 26 26 26 30 32
13 13 13 14 14 14 13 13 14 13 13 12 11 12 11 11 13 13 13 13 15 17 14 16 18 21 27 25 20 15 10 18 46 70 64 47 35 23 19 20 16 14 16 18 15 12 15 15 15 17 18 18 18 18 18 18 18 18 18 19 19 19 19 20 24 30 37 40 36 34 37 39 38 36 34 33 33 32 31 30 30 29 29 29 28 28 28 27 26 26 26 26 26 26 27 28 29
13 14 14 15 14 14 14 14 15 15 14 12 11 11 10 11 12 13 14 14 15 16 14 13 14 16 22 23 20 17 12 14 29 47 54 50 39 28 23 20 17 14 18 23 17 11 13 14 15 17 18 18 18 18 19 18 17 18 18 18 19 19 20 21 21 25 30 31 31 30 32 34 33 31 30 31 32 30 29 28 28 27 28 28 27 27 27 26 26 26 26 26 26 27 26 28 28
14 14 15 15 15 14 14 14 14 15 14 12 11 11 11 11 13 14 16 16 15 15 13 14 14 14 17 17 17 18 14 12 18 31 46 52 43 33 27 22 18 17 23 30 22 12 13 13 14 16 18 18 19 18 18 18 17 17 18 18 19 20 20 21 21 22 23 24 25 26 27 29 29 27 28 32 32 31 29 28 28 27 26 26 26 26 25 25 25 24 24 24 25 25 25 25 25
14 15 16 17 16 15 15 14 14 14 14 13 12 12 12 12 12 13 15 16 16 16 15 15 15 14 14 13 16 18 14 12 14 22 39 51 48 40 32 24 20 19 26 32 26 15 12 14 13 14 18 18 19 19 18 18 18 18 18 18 19 20 20 21 21 22 22 23 23 23 25 25 25 25 27 30 29 28 28 28 29 27 25 25 25 25 24 24 24 23 23 23 24 24 24 24 23
16 17 19 18 16 15 15 14 13 13 14 15 13 12 13 12 12 13 14 16 16 16 16 16 16 15 14 14 15 15 14 15 13 18 36 50 52 49 39 27 21 19 24 29 27 19 12 13 13 13 17 18 19 19 18 18 18 17 18 18 18 19 20 20 21 22 22 23 23 23 23 23 23 24 24 25 24 24 25 26 28 25 24 24 24 23 23 22 22 22 23 23 23 23 23 24 24
20 20 19 17 16 15 15 14 13 13 15 15 13 12 12 12 13 14 14 15 17 17 18 17 17 16 15 15 15 15 16 18 14 15 34 48 52 55 48 33 25 19 20 25 26 21 14 12 13 13 15 17 18 19 18 18 18 18 18 18 19 19 20 21 21 22 23 23 23 22 22 22 23 23 24 25 24 22 23 24 24 23 23 23 22 22 22 23 23 23 23 23 23 24 23 23 23
23 20 17 16 16 15 15 13 13 13 13 13 12 11 12 14 16 16 15 15 17 19 19 18 18 17 16 16 15 15 15 18 16 13 29 44 48 57 57 42 31 23 18 22 24 22 17 13 13 13 14 16 17 17 18 18 17 18 18 19 19 19 20 21 21 22 22 22 22 22 22 22 22 23 23 24 24 23 23 23 23 22 22 23 25 27 26 26 26 25 24 24 23 23 23 23 22
24 20 18 17 16 16 15 13 13 12 12 13 13 12 13 17 18 17 16 17 18 20 21 20 19 18 18 17 16 16 15 16 17 13 24 40 42 53 65 55 39 29 21 19 22 22 18 15 13 13 14 15 16 17 17 18 18 17 19 19 19 19 19 20 21 21 22 22 22 22 23 23 23 23 23 24 24 24 23 23 23 21 24 31 39 42 38 32 29 28 26 25 24 23 23 22 22
24 20 19 18 17 16 15 14 13 12 12 13 15 16 15 19 21 18 18 20 20 21 21 20 20 19 18 18 16 16 15 14 17 16 21 36 41 46 63 67 54 41 29 20 20 22 19 16 14 13 13 14 15 16 16 17 18 18 18 19 18 19 20 20 21 21 22 23 23 24 23 23 24 23 24 24 23 24 24 23 22 24 32 43 49 50 46 38 32 30 29 27 25 24 23 22 21
24 21 20 19 18 17 15 14 13 12 13 15 19 23 20 19 22 21 19 20 21 22 21 20 19 18 18 18 17 16 16 15 16 17 18 29 39 40 50 65 63 52 39 25 20 22 20 16 15 13 13 13 13 15 16 16 17 18 18 18 18 19 20 20 20 21 22 23 23 23 22 23 23 23 24 24 24 24 23 23 25 30 40 46 45 43 41 38 34 32 32 31 30 28 26 24 22
24 24 23 21 19 18 16 15 14 14 17 20 25 29 25 22 23 23 21 20 20 20 20 19 18 18 17 17 17 16 16 15 15 18 18 23 32 34 37 51 65 66 55 36 23 24 24 18 15 15 13 12 13 13 15 16 16 18 18 18 18 19 19 19 20 20 21 22 22 22 21 22 22 23 24 23 24 24 23 25 27 34 44 42 35 34 33 33 32 32 33 35 36 35 32 28 25
27 26 25 23 22 20 20 20 20 20 23 27 30 30 27 25 23 22 20 19 18 16 17 18 18 18 17 16 17 16 15 16 16 17 19 21 23 27 30 41 65 84 79 62 42 31 29 23 16 16 16 13 13 13 14 16 16 17 18 18 18 19 19 19 19 20 21 21 21 20 20 21 21 22 23 23 23 23 24 25 26 36 43 36 27 28 29 29 28 28 33 39 40 39 36 32 30
29 28 28 26 25 24 25 27 26 25 29 31 30 27 25 26 26 21 18 18 16 13 14 17 18 18 18 17 16 16 15 15 17 16 19 22 19 22 31 39 60 89 97 91 75 50 35 29 20 15 17 15 13 13 14 15 16 16 17 17 18 18 18 19 19 19 20 19 19 20 20 20 21 22 22 22 22 23 24 25 30 40 40 30 24 24 25 25 24 29 39 43 43 41 38 35 34
30 29 28 27 26 26 25 26 25 25 27 28 25 23 23 25 26 21 15 15 14 12 12 15 18 17 17 17 16 15 15 15 17 17 17 22 19 19 32 43 53 78 97 102 98 76 48 34 25 17 17 17 15 14 14 15 16 16 16 17 18 18 18 18 18 18 18 18 18 19 19 20 21 22 21 22 23 24 27 30 35 38 32 24 22 22 23 23 26 39 49 50 47 43 39 36 35
30 29 29 29 29 27 26 27 27 25 25 26 24 23 22 24 24 20 15 15 14 13 15 16 17 17 16 17 15 15 15 14 16 17 17 21 21 20 37 53 51 59 82 98 105 95 68 47 34 21 18 19 17 15 15 15 16 16 16 17 18 18 17 18 17 17 17 17 17 18 19 20 21 21 21 21 23 26 29 31 31 29 25 21 21 22 22 27 38 52 55 52 47 42 40 40 41
30 29 30 32 30 28 28 28 27 25 23 26 26 25 23 23 23 21 18 17 16 16 17 17 17 17 16 16 15 14 15 15 15 17 18 20 23 26 41 58 53 47 64 90 106 102 85 72 56 31 21 20 18 17 16 15 16 17 17 18 18 18 18 17 17 16 16 16 17 18 19 20 20 20 21 20 21 22 23 24 23 22 22 21 22 21 23 36 55 61 55 49 47 45 46 48 47
30 32 32 32 30 28 28 28 28 27 25 28 30 27 23 23 24 24 21 20 19 18 18 18 17 16 16 15 15 14 14 14 14 16 19 19 23 29 39 53 54 45 50 74 99 104 95 91 74 41 25 23 19 18 17 16 16 16 17 18 19 19 18 18 17 16 17 16 17 18 18 19 20 19 20 19 20 20 21 21 21 22 23 23 24 24 29 47 63 63 55 51 50 50 50 48 45
26 28 29 30 30 30 30 30 29 29 28 31 32 26 23 25 26 24 22 21 19 18 19 18 17 16 16 15 15 15 14 14 14 14 17 19 22 28 37 50 55 51 50 61 86 102 98 91 73 43 27 25 22 20 17 17 17 16 17 18 18 19 19 19 19 17 17 17 17 18 18 18 19 19 20 20 21 21 20 21 21 22 23 25 27 28 37 55 65 60 55 54 53 52 49 46 44
27 25 24 26 29 30 29 28 27 26 27 29 28 24 26 29 27 24 22 22 20 19 19 18 17 16 15 15 15 15 14 13 13 13 15 18 22 26 36 52 59 57 54 58 77 98 102 91 66 37 26 26 23 22 19 17 17 15 16 17 17 19 19 19 19 19 18 18 17 17 18 18 19 20 21 21 21 20 20 20 20 21 23 25 27 28 36 50 57 55 54 55 53 51 48 46 44
37 33 32 32 35 37 35 30 29 30 30 30 27 26 29 29 26 24 24 23 21 20 18 17 17 16 15 15 15 15 14 13 13 13 13 16 20 25 35 52 64 61 52 55 71 89 101 100 71 30 20 26 25 24 22 18 18 16 15 17 18 19 20 19 19 19 19 18 18 17 17 18 19 19 20 19 18 18 18 18 19 19 21 23 26 28 32 40 47 50 53 55 54 53 51 49 45
Wind_Speed
11 9 8 7 7 6 6 7 8 8 9 8 8 8 6 6 6 5 5 8 10 10 11 13 13 13 14 17 18 20 25 27 27 28 28 29 30 33 34 35 36 35 34 35 36 34 33 37 41 40 37 34 34 35 35 33 27 21 19 17 14 15 17 18 18 19 20 21 21 20 19 18 16 16 14 13 12 9 7 8 8 11 11 11 11 12 12 11 10 9 9 9 9 9 8 7 9
14 13 11 10 9 8 8 8 9 8 10 10 7 6 6 7 8 7 9 10 12 13 14 15 15 15 18 19 19 23 26 27 28 29 30 31 33 34 36 36 35 34 34 35 35 34 35 39 41 39 36 33 34 35 34 30 23 19 17 15 14 16 17 17 18 19 20 20 20 19 18 18 17 16 14 12 10 8 7 7 7 9 11 12 11 11 11 11 9 8 8 9 9 9 8 8 8
15 15 13 12 11 11 10 9 8 6 8 7 3 3 5 8 8 7 9 11 13 15 17 18 19 20 22 23 22 26 28 28 29 30 32 33 34 36 36 35 33 34 35 36 36 36 37 39 40 39 35 32 33 34 31 26 20 18 16 14 15 16 16 17 17 19 20 20 20 19 19 20 19 18 15 13 11 10 8 7 7 6 7 10 11 10 10 9 8 7 8 8 9 8 7 7 5
16 16 14 13 13 13 12 10 7 6 7 6 3 3 4 7 9 8 8 11 14 16 18 19 19 21 23 23 25 29 30 29 31 32 32 33 35 36 35 34 34 35 36 38 38 38 39 40 40 38 34 31 32 32 28 22 19 16 14 14 15 15 16 16 18 20 20 19 20 20 22 23 22 20 17 14 12 11 10 8 9 5 1 5 8 7 7 7 7 7 8 7 6 6 5 5 4
17 16 15 14 14 14 13 10 9 10 11 8 7 7 7 10 11 10 10 13 15 16 16 17 19 22 23 24 27 30 30 30 32 33 32 34 36 36 35 34 35 35 37 39 39 39 40 40 39 36 32 30 31 30 24 20 17 14 13 14 14 15 15 16 19 20 19 19 20 22 24 25 24 22 19 16 14 13 11 11 12 9 5 5 6 6 6 7 7 7 7 6 4 4 5 5 4
18 16 15 15 15 15 13 11 11 12 13 10 9 10 8 10 11 11 13 14 15 17 19 20 22 23 24 26 30 31 31 32 33 33 33 35 36 35 35 36 35 36 39 40 40 40 41 39 37 33 30 29 30 26 21 18 15 13 13 13 14 14 15 17 19 19 18 19 20 23 25 26 25 23 21 19 17 16 15 15 16 15 10 8 7 6 7 7 8 7 7 5 4 4 4 3 3
18 17 16 16 15 15 14 12 12 13 11 9 9 10 9 9 11 13 15 17 18 20 22 22 22 24 26 30 31 32 32 32 33 34 36 37 36 35 36 37 36 37 39 40 40 41 40 37 34 31 28 28 28 23 19 16 13 12 12 13 13 14 15 18 18 17 17 18 20 22 24 27 27 25 24 23 22 22 20 20 20 19 15 10 7 6 6 6 7 7 6 5 5 4 2 1 0
20 18 17 17 16 16 15 13 13 13 10 10 12 10 7 7 10 15 18 19 20 22 23 23 23 26 30 31 32 32 33 34 35 36 37 37 36 36 37 38 37 38 39 40 41 41 38 35 32 28 26 27 24 20 18 14 11 11 12 12 13 14 16 18 17 15 16 17 19 21 23 26 28 27 27 27 27 27 25 24 23 21 19 15 11 8 6 4 4 4 5 4 5 5 4 3 2
21 20 19 18 17 16 16 14 13 14 10 11 14 12 9 7 10 16 19 19 20 21 22 23 25 28 30 31 32 33 35 36 37 37 38 38 37 37 38 37 37 37 39 40 41 39 36 33 29 25 26 25 22 19 16 12 11 11 11 11 12 14 16 16 14 13 14 16 18 19 21 24 27 28 28 29 29 30 29 27 26 23 21 18 16 13 10 8 6 4 2 1 2 4 5 6 5
22 22 21 20 19 17 17 16 14 15 12 10 12 13 13 13 15 17 19 21 22 21 21 23 26 30 30 31 33 35 37 37 38 39 39 39 38 38 37 37 37 38 39 41 39 37 34 31 26 24 25 23 19 17 13 10 10 10 10 11 12 14 15 15 12 11 12 14 16 18 20 22 25 27 29 30 30 31 31 30 28 26 24 21 19 17 15 13 11 10 8 6 5 3 3 3 4
24 24 23 21 21 20 19 18 17 16 15 13 13 14 14 16 18 20 22 24 23 22 22 25 29 32 32 33 35 37 38 39 40 40 40 39 39 38 37 37 38 38 39 39 37 34 32 28 23 23 23 20 18 15 11 10 9 9 9 11 12 14 14 13 10 9 11 13 15 17 19 21 23 25 28 30 30 30 31 31 29 28 27 24 22 20 19 17 15 14 12 11 10 10 9 8 7
26 25 24 24 23 23 21 20 19 18 17 16 16 15 14 18 21 23 26 26 25 26 27 28 31 33 35 36 38 39 39 40 41 39 39 38 37 36 37 38 38 38 38 36 33 31 30 25 21 22 21 18 16 13 10 9 9 9 9 11 12 13 13 11 9 8 9 11 13 16 19 21 21 23 25 28 30 29 30 30 30 28 27 26 25 23 21 20 19 18 17 16 16 16 15 15 14
29 28 27 26 26 25 23 22 21 21 18 17 16 15 17 21 23 26 29 28 27 30 30 31 34 34 35 37 37 38 39 40 39 38 37 36 35 36 37 38 38 36 35 32 29 29 27 21 19 20 18 16 14 10 9 8 8 8 9 10 11 12 11 10 8 7 8 10 12 15 18 20 20 22 23 25 28 29 28 28 29 28 27 26 26 25 24 22 21 20 19 19 19 19 20 19 18
31 30 30 29 28 27 26 25 23 22 19 18 17 16 19 22 22 24 28 32 32 34 34 36 36 35 35 35 37 38 40 40 38 38 35 35 36 36 37 37 36 33 31 28 27 27 22 17 18 18 16 14 11 9 8 7 7 7 9 10 10 11 10 9 8 6 6 8 10 14 16 18 19 21 23 23 25 27 27 26 26 27 26 26 26 26 25 24 24 22 21 19 18 18 19 19 20
33 32 32 31 30 29 28 27 25 23 21 20 17 17 22 24 22 20 24 32 36 37 38 38 37 36 36 37 39 40 40 39 38 36 35 36 36 35 36 36 33 31 28 26 25 23 17 15 17 16 14 12 9 8 7 7 7 7 9 9 9 10 9 8 7 6 6 7 9 11 14 16 18 20 22 23 23 24 26 25 23 25 25 25 25 25 25 25 25 24 23 21 19 18 18 19 19
36 35 35 34 32 31 31 29 27 25 23 22 20 21 24 22 22 21 22 29 33 35 36 36 36 37 38 39 40 40 38 36 35 34 36 36 35 35 35 33 31 29 27 25 23 19 14 14 15 14 13 10 7 7 6 6 7 8 8 8 9 9 8 8 7 6 6 6 7 9 12 15 16 18 21 22 22 22 23 23 22 22 24 24 24 25 24 24 24 24 24 23 22 20 19 18 19
39 38 38 36 34 33 32 31 30 29 27 26 25 26 25 19 19 20 20 26 30 31 33 34 36 37 37 37 37 35 34 32 33 35 36 35 33 33 31 29 29 27 24 22 20 14 12 13 14 13 11 8 6 6 5 6 7 8 8 8 8 8 8 7 6 6 5 5 6 9 12 14 15 17 19 20 20 20 20 21 21 22 23 24 25 25 25 25 24 24 24 24 23 21 20 18 19
41 41 40 38 37 36 35 34 33 32 31 30 29 29 28 25 23 21 23 30 33 33 35 37 38 37 35 34 33 32 33 34 35 35 34 33 32 30 28 28 27 24 22 20 17 12 11 13 12 11 9 5 5 4 5 6 7 7 7 8 8 8 8 7 6 5 5 6 7 10 12 14 15 16 18 17 18 18 19 21 22 23 24 25 26 26 26 26 25 25 25 24 24 23 22 21 22
44 43 43 41 40 39 37 37 36 35 34 33 33 32 32 33 32 31 34 38 38 38 39 39 38 34 33 33 33 34 35 35 35 33 31 31 29 28 28 27 24 22 20 18 14 11 11 11 10 9 6 4 4 3 5 7 7 7 7 7 7 8 8 7 6 5 5 7 9 11 12 14 15 15 16 16 18 19 20 21 22 24 26 27 27 28 28 28 28 28 27 27 26 26 26 26 26
45 45 45 44 43 42 40 39 38 37 37 36 36 36 36 37 37 38 39 39 38 39 39 38 36 32 33 35 36 35 32 31 30 29 29 27 26 27 27 24 23 21 18 16 12 9 9 10 9 7 4 3 3 3 5 7 7 6 7 7 7 8 8 6 5 6 6 7 9 11 12 14 15 16 17 18 19 20 21 23 24 25 27 29 30 31 31 31 31 31 31 30 30 29 29 29 29
46 46 46 46 45 44 43 41 40 38 38 38 38 37 38 37 36 37 38 36 35 36 35 35 35 34 36 36 34 32 29 27 26 25 24 23 24 25 24 23 21 20 17 15 10 7 6 8 7 4 2 2 2 3 6 7 7 6 6 7 8 8 8 6 6 6 6 7 9 11 14 16 16 18 19 20 21 22 24 25 26 28 29 31 32 33 34 35 35 34 34 34 33 33 33 32 31
46 46 46 46 45 44 44 43 41 39 38 39 38 36 36 36 34 34 34 33 32 32 32 32 33 34 34 33 31 29 26 24 23 21 20 20 21 22 23 22 21 19 17 15 9 4 4 6 5 2 1 2 2 3 6 7 6 6 7 8 9 9 9 8 8 7 7 8 10 13 15 17 18 20 21 22 23 25 26 27 28 30 32 34 35 36 37 37 37 36 36 36 36 36 36 35 34
41 43 43 44 44 44 43 43 42 40 39 39 39 36 36 36 35 34 32 30 29 28 29 31 31 31 30 29 26 24 22 20 19 18 18 19 20 22 22 22 21 19 17 14 7 1 1 4 3 0 1 2 2 4 7 7 6 7 8 9 9 9 9 9 9 9 9 11 13 16 18 19 21 22 23 24 25 27 28 29 31 33 34 36 36 36 36 36 37 37 37 37 38 38 38 38 38
37 38 39 40 41 41 41 41 40 39 39 39 39 38 38 38 36 34 31 28 26 26 28 28 27 26 25 23 20 19 18 17 17 17 18 19 21 22 22 21 20 18 16 12 3 2 1 2 2 2 2 2 3 5 7 7 7 8 9 10 10 10 10 10 11 11 13 15 18 20 21 22 23 24 25 26 27 28 29 31 33 34 34 34 34 34 34 35 36 37 38 39 39 40 40 41 41
33 33 35 36 37 37 37 37 37 37 37 37 37 38 38 36 35 33 29 26 24 25 26 23 21 20 19 18 17 16 16 16 17 17 18 20 22 22 21 20 19 16 13 7 1 4 2 2 3 4 4 3 4 6 8 8 8 9 10 10 10 11 11 12 13 14 16 18 21 21 22 23 24 26 26 27 28 29 30 32 33 33 32 32 32 32 33 35 36 37 38 39 40 40 41 42 41
26 28 30 31 32 33 34 34 33 34 35 35 34 35 36 35 34 31 27 24 23 23 22 18 17 16 15 15 15 15 16 16 16 17 19 20 21 21 20 19 16 12 8 1 4 4 3 4 5 5 5 4 5 7 9 9 9 10 11 11 11 11 12 13 15 17 19 20 22 22 23 24 26 27 27 28 29 30 31 32 32 31 31 31 32 32 34 35 37 38 38 39 40 40 40 40 40
22 24 24 24 26 27 27 28 29 30 31 31 30 30 32 32 31 29 27 24 23 22 18 16 15 14 14 14 14 15 16 16 17 18 18 18 18 18 18 16 12 7 2 4 6 4 4 5 7 7 5 5 7 8 9 10 11 12 11 11 11 12 13 15 17 19 21 23 24 24 25 26 27 27 28 29 30 30 31 31 30 30 30 31 31 32 33 35 37 37 37 38 39 39 39 39 39
22 23 22 22 23 23 23 23 24 25 25 26 25 25 27 29 30 28 27 25 24 21 17 15 14 13 13 13 13 14 15 16 18 18 16 16 16 15 14 11 6 2 3 6 6 5 6 7 8 7 6 7 8 9 10 11 12 13 12 12 12 12 15 17 19 21 23 24 25 25 27 28 28 28 28 29 29 29 30 30 30 30 30 30 31 31 32 34 35 35 35 36 37 37 38 38 38
23 23 23 23 23 24 23 22 22 22 21 22 21 21 23 26 28 28 27 26 23 19 16 15 14 13 13 14 14 14 14 16 17 17 16 16 15 13 10 6 2 3 6 6 7 6 7 9 9 8 7 8 9 10 11 12 13 14 13 12 12 13 16 19 20 22 24 25 26 27 27 27 27 28 28 29 28 29 29 30 30 31 30 30 31 31 31 32 33 33 33 33 34 35 36 37 36
25 25 25 25 25 25 24 23 23 23 22 22 21 21 22 24 26 27 26 24 21 18 16 15 14 14 14 15 15 13 13 15 16 16 16 17 14 9 5 2 3 6 7 7 7 7 8 10 9 8 8 9 11 12 12 13 15 15 14 13 13 14 16 19 21 23 25 26 27 27 27 27 27 27 27 28 29 30 31 32 32 32 32 32 32 32 31 30 30 30 30 31 31 32 33 33 32
27 28 27 27 27 27 25 24 24 24 23 23 23 22 23 24 25 25 24 22 20 19 17 16 16 14 14 15 14 13 12 13 15 15 15 15 11 6 3 1 4 7 8 8 8 7 9 11 10 9 9 10 12 13 14 15 16 16 15 14 14 14 17 20 21 23 24 26 26 26 26 27 27 28 28 29 30 31 32 33 33 33 33 33 33 32 31 30 29 28 27 28 27 27 28 28 29
30 30 30 30 29 28 26 27 26 25 24 25 24 23 24 24 24 24 22 21 21 20 18 17 16 14 14 13 12 12 11 11 13 14 13 12 8 3 3 4 5 6 8 9 8 7 9 11 10 10 10 11 13 14 15 16 17 17 16 15 14 15 18 21 23 24 25 26 26 26 26 27 28 29 29 29 29 30 30 31 31 32 32 32 32 32 31 31 30 28 27 26 26 26 26 27 29
34 33 34 33 31 29 28 28 27 26 26 25 24 24 24 24 24 24 22 22 21 20 19 18 16 14 13 11 10 10 9 9 11 12 12 8 5 2 4 5 5 6 8 9 8 8 10 11 11 10 10 11 13 15 16 17 17 18 17 15 15 16 18 20 23 24 25 26 26 26 26 26 27 28 28 27 27 27 27 28 28 29 30 30 30 31 31 31 30 30 28 27 26 26 27 28 29
39 38 37 35 33 31 30 30 28 27 27 26 25 24 24 24 25 24 23 23 21 20 19 18 16 13 12 10 9 10 9 9 9 11 11 6 2 0 4 6 6 7 8 9 7 8 11 12 12 11 11 11 13 16 17 18 18 18 17 16 17 17 18 19 21 23 23 24 24 25 25 25 25 25 24 24 24 24 24 24 25 26 27 27 28 29 29 29 28 28 28 27 27 27 27 28 29
43 41 39 37 35 32 32 31 30 29 28 27 26 26 25 24 25 25 25 24 21 20 18 17 15 13 11 9 9 10 10 9 8 9 10 6 1 1 4 6 7 8 8 8 7 8 11 12 13 12 11 11 13 16 18 18 19 19 18 18 18 18 19 19 21 21 22 22 23 23 23 23 22 21 21 21 21 21 22 22 22 23 23 24 25 25 26 26 25 25 25 25 25 25 26 27 27
44 42 40 38 36 34 33 32 32 31 30 29 29 28 26 25 26 27 26 24 22 20 18 17 16 14 12 10 10 11 11 10 8 8 8 5 2 2 4 7 9 8 7 6 6 9 12 13 13 13 11 12 13 16 19 19 19 19 19 19 19 19 20 20 21 21 21 21 21 21 21 20 20 19 19 19 19 19 19 19 19 20 20 21 21 22 22 22 23 23 23 24 24 24 24 25 26
45 43 41 39 37 37 35 33 34 33 33 32 31 29 28 26 26 28 27 25 23 21 18 17 17 15 14 12 12 11 11 10 8 7 6 4 2 4 5 8 10 10 7 5 6 10 13 14 14 13 12 12 13 16 19 20 20 20 19 19 20 20 21 21 21 21 21 20 20 19 19 18 17 17 17 16 17 17 17 17 17 17 17 18 18 19 20 20 21 21 21 22 22 22 23 24 25
46 44 42 40 40 39 36 35 36 36 35 34 32 31 30 27 28 29 28 27 25 22 19 18 17 16 15 14 13 12 11 10 8 6 6 4 3 5 7 9 11 11 9 6 6 11 14 16 16 15 14 13 14 16 19 21 21 20 20 20 20 21 21 21 21 20 19 19 18 18 17 16 16 16 16 16 15 15 15 14 14 14 15 16 16 17 18 19 19 20 20 20 20 21 22 23 24
48 46 43 42 42 41 38 37 37 37 37 36 34 34 32 29 29 29 29 28 27 24 22 21 20 18 17 16 15 13 12 11 8 7 7 5 5 6 8 10 11 12 10 7 6 11 15 16 17 16 15 14 14 16 19 20 21 21 20 20 21 21 21 21 20 19 18 18 18 18 16 16 15 15 15 14 14 13 12 12 12 12 13 14 15 15 16 17 18 18 19 19 19 20 20 21 22
49 47 44 45 45 43 41 40 39 39 40 39 38 36 34 30 29 29 29 29 29 27 25 24 22 21 19 18 16 15 14 12 10 8 8 8 7 7 8 10 12 12 11 8 6 9 14 17 18 18 16 15 15 17 19 21 22 22 21 21 21 21 21 21 20 19 19 18 18 17 16 15 14 13 13 12 12 11 10 10 10 11 11 12 13 14 14 15 16 16 17 18 18 18 19 20 21
50 48 47 48 48 45 44 43 42 41 42 41 39 37 34 32 30 30 30 30 30 29 28 26 24 23 22 20 18 16 15 14 12 10 9 10 9 8 9 10 12 12 11 9 6 10 14 16 19 19 18 17 16 17 19 21 21 21 21 21 20 21 21 21 20 20 19 18 17 17 15 14 13 12 11 11 10 9 9 8 9 9 10 11 11 12 13 13 14 15 15 16 16 17 17 18 19
51 50 49 51 50 48 46 45 44 42 42 42 40 38 36 35 33 32 32 31 31 31 30 28 27 25 25 22 20 18 17 16 14 12 10 11 11 10 11 12 14 14 13 10 8 11 15 17 19 20 20 19 18 18 19 21 21 21 21 21 21 21 21 21 20 20 19 18 17 16 15 14 13 12 11 10 9 8 8 7 7 8 9 10 10 11 12 12 12 13 14 14 14 15 16 17 17
52 52 53 54 51 50 49 48 46 43 43 44 43 41 39 38 36 34 33 31 31 32 31 30 29 28 27 24 22 20 18 18 16 14 11 11 12 12 12 13 15 16 16 13 10 12 16 18 19 20 21 20 19 19 20 21 22 22 22 21 21 20 20 20 20 20 19 18 17 16 16 14 13 12 11 10 9 8 7 7 6 7 8 8 9 10 10 11 11 12 12 13 13 14 14 15 16
55 57 57 56 53 53 52 51 48 46 46 47 45 43 41 39 37 36 34 32 31 32 32 32 32 31 28 26 24 22 20 20 18 16 13 13 14 15 15 15 16 18 18 16 13 13 15 18 19 21 21 21 20 20 20 21 22 22 21 21 20 20 20 20 20 19 19 18 17 16 15 14 13 12 11 10 9 7 7 6 6 6 7 7 8 9 9 10 10 10 11 12 12 13 14 14 15
60 62 60 58 56 56 56 53 51 50 49 47 46 45 42 40 40 38 36 33 31 32 34 35 34 32 30 28 26 24 22 22 20 18 16 15 16 17 17 16 17 18 18 17 15 13 16 18 20 22 23 22 22 21 21 22 22 22 22 21 21 21 21 20 20 19 18 18 17 16 15 14 13 13 12 11 9 8 7 6 5 6 6 7 7 8 8 8 9 9 10 10 11 12 12 13 14
64 65 62 61 59 58 58 55 53 52 49 47 47 46 42 41 42 40 37 35 33 34 37 38 36 34 32 30 29 27 25 23 22 21 18 17 17 18 18 17 18 18 19 18 17 15 17 19 21 23 24 24 23 22 22 23 23 23 22 22 22 22 21 21 20 19 18 18 17 15 15 14 13 13 12 11 10 9 7 6 6 6 6 6 6 6 6 7 7 8 9 10 10 11 11 12 13
67 66 64 63 61 60 59 56 55 52 47 46 47 47 45 43 43 41 38 38 38 38 40 40 39 37 35 33 31 29 27 24 24 23 21 20 19 18 18 19 20 20 20 20 19 17 18 20 21 22 24 25 25 24 23 23 23 23 23 23 23 22 22 21 21 20 19 18 17 16 15 15 14 13 12 11 10 9 8 7 7 6 6 5 5 5 5 5 6 6 7 8 10 11 12 13 13
68 67 65 63 62 62 60 58 56 50 46 46 47 48 47 44 44 44 42 43 42 42 42 41 41 40 38 35 32 31 28 26 26 26 24 23 21 20 20 21 22 22 21 21 20 18 18 19 21 22 24 26 26 25 24 24 23 23 24 24 23 23 22 22 22 21 20 18 18 17 16 15 15 14 13 12 11 10 9 8 7 6 5 3 3 3 3 3 5 6 7 8 10 11 13 14 15
69 68 66 65 63 62 60 57 53 48 46 47 49 50 49 46 46 47 46 46 46 44 43 42 42 42 39 35 33 32 29 28 28 29 27 25 23 21 21 22 23 23 22 21 21 19 18 19 21 23 24 25 26 26 25 25 24 24 24 24 23 23 23 22 22 21 21 19 19 18 16 16 15 14 14 13 12 11 10 9 8 7 5 3 2 0 1 3 4 6 8 9 10 12 13 15 15
70 69 67 65 63 61 58 55 52 48 48 51 53 52 49 47 50 51 49 49 49 46 43 41 41 42 41 37 34 32 30 30 31 31 30 27 24 23 22 23 24 24 23 22 22 21 20 20 22 24 25 26 26 26 26 25 25 25 25 24 24 24 23 22 22 22 21 20 19 18 17 16 15 15 14 14 13 12 11 11 9 8 6 4 3 3 3 4 5 7 8 10 11 12 14 15 16
72 70 69 67 64 60 58 58 56 53 54 57 57 53 48 49 54 55 51 50 50 47 42 40 40 41 42 39 35 32 31 32 33 33 31 29 26 24 23 23 25 25 24 24 24 24 22 21 23 25 27 27 27 27 26 26 26 26 26 25 25 24 24 23 23 22 22 21 20 18 17 16 16 16 15 14 13 12 12 11 10 9 7 6 5 6 6 6 7 8 9 11 12 13 14 15 16
74 74 72 67 63 62 62 62 60 59 59 60 57 52 50 54 58 58 53 50 51 47 41 39 38 40 41 40 37 34 32 34 35 35 33 31 28 26 25 24 25 27 25 25 25 26 25 24 23 26 28 29 28 28 27 27 26 26 26 25 26 25 24 24 23 23 23 21 20 19 18 17 16 16 15 15 14 13 13 12 11 10 9 8 8 8 8 8 8 9 10 11 12 13 13 15 16
76 75 70 65 64 66 66 64 63 61 59 57 56 53 54 58 59 57 53 50 48 44 39 37 36 37 38 39 39 35 33 36 38 37 36 34 31 28 27 26 27 28 27 26 26 27 27 25 24 27 30 31 31 30 29 28 28 27 26 26 26 26 25 25 24 24 23 21 20 19 18 18 17 17 16 15 15 14 13 13 13 12 11 10 10 9 9 9 9 9 10 11 12 12 13 15 17
76 73 68 68 71 70 67 65 63 60 56 55 55 54 56 58 56 54 52 48 45 42 39 36 34 35 35 38 41 37 35 38 39 39 38 37 34 31 30 29 28 28 29 27 27 28 29 28 27 28 31 34 34 33 31 31 30 29 28 27 27 27 26 26 25 25 23 22 21 20 20 19 19 18 17 16 16 15 15 14 14 13 13 12 11 10 10 9 9 10 11 11 12 13 14 16 17
74 71 70 72 72 68 65 63 60 57 54 54 56 57 57 55 54 53 51 47 45 42 40 37 35 34 33 36 42 40 37 39 41 41 41 40 37 34 33 32 30 28 29 29 28 29 31 31 29 30 32 34 35 35 34 33 33 32 30 29 28 27 27 26 26 25 23 23 23 22 22 21 20 19 18 17 17 16 16 16 15 14 13 12 12 12 11 9 9 11 12 12 13 14 15 17 18
73 73 73 72 68 66 65 63 59 57 56 56 59 58 54 52 54 55 50 47 46 43 40 38 36 35 34 36 42 43 40 42 44 44 44 43 41 37 35 33 31 28 28 29 29 30 32 32 31 31 32 35 36 37 37 36 35 35 33 32 30 29 27 26 26 25 25 25 25 25 24 23 21 20 19 18 18 18 17 16 14 14 13 13 13 13 12 11 11 11 12 13 14 16 17 18 20
71 71 70 69 67 66 66 63 61 59 57 59 60 56 52 54 57 54 49 46 45 42 41 39 37 37 36 37 44 47 45 45 47 46 45 45 43 40 36 34 32 29 29 29 30 31 32 32 32 32 32 35 37 38 39 38 37 36 35 33 31 29 28 27 27 27 27 28 27 26 25 23 22 21 20 20 19 18 17 16 15 14 14 14 15 15 14 13 13 13 13 14 16 18 19 20 21
71 70 68 68 67 67 66 62 57 56 55 57 58 54 54 57 55 51 47 45 43 42 41 38 37 38 38 41 46 50 49 47 48 45 44 45 44 41 38 35 33 31 29 29 30 32 33 33 33 33 33 35 37 39 40 39 38 37 35 33 31 29 29 30 30 30 30 30 28 27 26 24 24 23 22 20 19 18 17 17 17 16 16 16 17 17 16 15 15 15 16 16 18 19 21 22 24
Wind_Direction
237 240 245 248 238 240 241 241 255 267 281 288 294 299 289 276 258 247 263 263 261 262 259 261 275 280 268 275 294 316 327 330 329 331 333 333 335 337 338 338 339 342 343 343 343 343 343 344 346 346 346 347 347 345 343 343 345 347 351 358 6 11 15 14 8 4 2 0 1 3 4 3 2 359 356 358 352 344 333 316 291 273 261 249 242 237 236 234 231 224 216 212 221 228 223 234 247
237 239 245 250 242 239 240 241 254 276 284 278 280 279 266 265 264 261 261 258 255 257 259 265 276 274 271 283 300 315 325 328 329 331 332 332 333 335 337 337 340 343 343 344 344 344 343 344 346 346 345 346 347 345 344 345 346 349 354 2 9 15 19 15 10 9 8 10 12 13 13 12 12 10 9 8 4 359 348 331 305 273 256 243 232 229 232 232 227 216 205 208 218 223 226 243 250
237 238 242 248 248 247 244 245 254 274 274 263 262 261 263 267 268 273 269 258 251 254 262 270 276 275 277 288 303 315 321 324 327 329 329 330 331 334 336 338 341 343 343 344 344 343 343 344 345 345 344 346 347 345 345 346 347 350 358 6 13 20 20 16 15 16 18 22 24 24 25 26 24 23 22 18 16 11 3 352 335 301 254 233 222 224 229 226 214 194 197 210 216 215 222 239 241
237 237 239 242 248 251 248 247 244 245 255 258 270 272 260 261 272 286 277 262 256 256 260 266 270 273 277 287 305 315 318 321 325 326 327 329 331 333 335 338 339 341 342 342 342 342 342 343 344 343 343 347 347 345 346 347 348 352 1 9 18 24 21 19 20 23 29 33 34 36 36 35 32 30 31 28 29 28 25 19 6 3 284 211 205 210 213 207 193 178 192 206 210 208 217 241 244
237 237 238 239 245 250 252 252 240 235 245 253 260 271 267 263 275 278 271 264 257 253 256 261 264 270 278 292 307 315 318 321 323 324 326 328 330 332 334 336 337 339 340 340 341 340 341 342 343 343 344 347 346 346 347 347 348 355 4 12 23 26 23 23 24 30 38 42 43 44 42 41 38 35 36 39 43 46 48 41 36 44 69 132 157 172 179 177 172 173 189 194 187 209 233 257 267
237 238 240 241 245 249 254 254 248 244 245 249 254 265 268 271 274 265 267 270 262 259 263 269 271 275 288 301 310 314 317 319 321 322 324 326 329 331 333 334 335 336 338 339 340 339 340 341 342 343 345 347 346 347 347 347 350 358 6 17 28 28 28 26 29 39 47 48 47 48 47 43 40 40 42 45 49 52 57 55 55 58 68 101 126 145 154 160 167 178 190 193 197 220 239 255 278
236 238 239 242 246 250 253 253 253 246 240 245 253 262 268 279 282 273 271 273 271 271 273 275 277 285 298 305 310 313 315 317 319 320 322 324 327 329 330 331 332 334 335 337 339 339 340 341 343 343 346 347 347 348 347 347 353 360 9 22 30 32 31 28 33 46 53 52 50 51 49 43 41 43 45 46 48 51 55 58 62 65 70 81 95 114 133 153 172 186 188 193 204 214 206 160 192
235 236 238 243 248 251 250 253 254 243 234 238 247 259 269 281 283 274 267 268 274 274 277 278 280 291 300 305 309 312 313 315 316 318 320 322 324 326 327 328 329 331 333 336 337 338 340 342 343 345 348 348 348 349 347 348 354 2 13 25 32 37 33 29 37 53 59 55 52 52 47 42 42 45 47 47 49 51 54 57 62 67 72 76 80 85 96 121 161 187 197 206 219 231 249 267 266
235 237 239 242 247 250 248 251 256 245 235 237 248 254 254 259 260 261 262 269 277 275 276 279 285 295 301 304 307 310 311 313 314 316 318 320 322 324 326 326 328 330 332 334 335 337 340 342 344 347 349 349 349 347 347 349 354 5 18 27 35 39 34 31 40 58 64 57 54 50 45 42 42 43 47 49 51 52 53 57 60 64 69 73 77 78 81 83 82 90 104 206 238 255 273 286 291
235 237 239 242 246 249 248 252 255 245 237 240 250 252 253 259 257 260 269 275 275 274 279 284 292 300 302 304 307 309 311 311 313 315 316 317 319 322 325 325 327 329 330 332 333 336 340 342 346 349 349 349 349 346 346 349 356 10 20 31 37 38 35 33 42 61 66 59 54 48 42 40 41 43 46 49 51 52 53 55 58 61 64 67 70 72 73 72 71 70 68 63 57 42 15 357 349
234 237 240 243 246 248 248 250 253 247 245 250 251 251 254 260 262 265 275 279 275 281 291 294 298 300 301 302 305 308 309 310 312 313 315 316 318 321 323 325 326 327 328 329 331 336 339 343 347 349 349 350 348 346 346 349 1 14 25 35 37 37 35 36 44 62 68 61 53 46 41 38 40 43 45 48 49 50 52 54 57 60 62 63 66 69 70 71 71 71 72 71 68 65 60 59 55
234 236 240 243 247 249 249 250 253 252 250 256 252 248 249 254 262 267 276 280 279 289 297 295 297 297 297 298 300 304 307 310 311 313 314 316 318 321 323 325 325 326 326 327 330 336 339 343 349 349 348 349 347 346 346 352 7 17 31 39 37 35 35 38 47 64 68 60 51 44 40 38 41 44 45 45 45 47 49 51 55 59 62 64 65 67 70 71 72 72 73 73 74 74 73 72 69
235 237 239 242 246 248 251 252 254 254 253 259 253 249 253 253 259 268 275 277 279 288 292 291 294 295 295 295 297 302 305 309 312 313 315 317 320 322 323 325 326 326 326 327 331 335 339 345 350 347 348 349 347 347 346 356 12 23 36 38 36 37 35 39 51 68 68 57 47 39 38 39 42 47 47 45 44 43 45 49 51 54 59 63 64 65 67 69 70 71 72 75 78 79 77 72 64
237 238 239 241 244 246 250 251 252 254 254 259 256 257 261 257 265 278 278 276 280 284 285 287 289 292 294 295 298 300 303 306 309 311 314 317 320 321 322 325 326 327 326 328 332 335 340 349 350 346 348 349 348 348 348 2 19 32 37 35 37 39 36 39 55 73 68 54 43 36 35 42 46 50 51 48 46 42 41 45 48 51 56 61 64 66 66 67 69 69 69 72 78 79 73 63 56
239 240 242 242 243 245 248 249 250 251 252 254 250 251 259 259 265 281 280 275 277 279 282 285 286 289 292 295 297 299 300 302 304 307 310 315 319 320 321 323 326 326 327 330 333 336 344 353 348 345 348 350 351 348 350 13 29 38 34 34 41 43 40 41 58 79 74 56 43 36 36 44 52 54 53 51 48 42 39 42 46 49 55 62 65 67 68 68 68 68 67 69 72 72 66 59 57
239 241 243 244 245 246 247 248 249 247 247 246 235 235 252 258 255 261 271 271 275 278 281 286 287 290 293 295 297 297 299 300 302 304 307 312 317 319 319 320 323 325 326 331 334 338 351 353 345 344 348 352 353 347 357 25 36 36 32 39 45 45 47 47 62 84 84 65 46 39 41 49 58 59 57 53 50 45 39 41 47 51 57 64 67 69 70 71 71 70 70 71 72 72 69 65 63
239 241 243 245 246 248 249 249 248 247 244 241 236 237 244 245 243 246 256 269 278 281 284 289 290 291 294 298 298 298 299 299 302 304 305 308 313 318 319 320 323 325 327 332 336 345 359 351 343 343 348 356 354 349 10 34 38 36 35 45 49 49 53 57 69 86 90 72 52 47 52 59 64 63 60 54 52 48 44 46 52 58 62 67 69 71 72 74 74 74 74 73 74 74 72 70 65
240 241 243 244 246 247 249 249 249 248 245 243 240 241 242 238 240 240 246 267 279 281 286 291 291 292 296 300 300 299 297 296 299 302 304 306 310 315 319 321 324 327 331 334 339 354 1 347 341 342 349 1 355 358 24 39 39 38 42 47 50 52 57 67 78 90 92 75 60 58 62 69 71 68 62 55 52 53 55 57 61 65 68 69 70 71 72 73 73 74 74 73 74 73 72 70 67
241 242 244 244 245 247 247 248 248 248 247 247 244 243 245 244 248 250 254 268 277 280 286 290 292 294 296 299 299 298 297 296 297 299 302 305 307 312 317 320 323 328 332 334 340 357 356 342 340 341 351 8 359 12 35 41 43 43 46 49 50 54 61 73 86 98 94 78 70 65 69 77 78 72 65 60 59 62 65 66 68 69 70 71 71 71 72 72 72 72 72 71 71 71 70 69 67
242 243 245 245 246 247 247 247 247 248 248 249 249 248 249 251 256 258 260 269 278 283 286 288 292 293 293 295 296 297 298 298 298 298 301 304 306 310 315 318 321 326 329 331 338 351 348 339 336 339 356 17 10 29 43 46 50 49 49 50 51 56 62 75 94 104 96 81 76 74 78 82 80 74 70 69 68 70 71 71 72 72 71 72 72 72 73 73 73 72 72 71 70 69 68 67 66
243 244 245 246 247 248 248 248 247 248 250 251 251 252 254 258 262 264 266 272 280 285 285 288 293 292 292 293 294 296 297 299 301 301 302 305 307 309 314 317 320 325 329 329 331 339 342 335 330 335 8 29 32 41 53 58 56 52 53 53 55 60 66 81 101 106 97 85 82 85 86 83 78 75 75 74 73 75 76 75 75 74 73 74 74 74 74 74 73 72 71 69 68 68 67 66 64
243 244 245 246 247 248 248 248 248 248 249 252 253 254 257 261 265 269 270 274 279 283 285 290 293 292 291 290 292 296 297 298 300 302 304 307 308 311 316 318 320 325 329 328 325 332 340 327 318 327 48 61 55 57 66 69 63 59 58 58 62 69 77 89 101 100 93 87 91 95 92 85 80 78 78 77 77 79 78 76 77 77 76 76 76 75 74 72 70 69 68 67 66 66 66 65 65
243 244 245 246 246 246 247 247 247 248 249 252 254 256 259 262 266 270 272 274 276 281 289 293 290 289 289 289 294 299 299 299 301 304 307 308 310 314 318 319 320 323 327 326 321 311 334 311 292 215 111 90 70 74 80 79 72 68 66 66 72 80 86 91 92 91 89 93 99 101 95 87 83 80 79 79 80 80 80 79 80 79 78 77 76 74 71 68 66 66 66 66 65 65 65 65 65
241 242 244 245 246 246 247 247 248 249 250 253 255 258 260 262 265 269 271 271 274 283 291 293 290 289 290 293 297 299 300 300 303 307 310 312 314 316 318 318 319 320 321 322 319 150 199 276 232 152 124 106 90 90 90 86 81 77 75 75 81 88 91 89 87 88 91 97 102 102 96 89 84 81 81 82 81 82 83 83 82 80 78 76 73 71 68 67 67 66 66 66 66 66 66 65 65
240 242 243 244 246 247 247 248 249 250 251 253 256 258 260 261 264 267 267 267 274 286 291 292 291 290 293 296 298 299 301 302 304 308 313 315 315 316 316 315 316 314 313 315 145 147 186 215 184 145 130 120 107 101 97 92 88 85 83 85 89 91 90 89 90 93 95 100 104 101 94 89 84 82 84 84 83 84 86 86 83 80 77 74 71 70 68 68 68 68 68 68 67 66 66 65 65
240 241 243 245 246 247 248 249 249 250 250 251 253 256 257 259 260 260 259 262 274 286 290 290 288 289 294 298 300 303 305 305 307 311 314 316 318 317 314 313 311 307 303 263 144 154 186 187 164 144 137 129 114 107 102 98 95 92 91 93 93 90 89 92 94 95 96 100 102 97 91 89 86 84 85 85 85 87 87 85 81 77 74 72 71 70 69 69 70 69 69 70 69 68 67 67 68
241 241 242 243 245 246 247 247 247 247 248 249 249 253 255 254 254 253 253 259 271 282 287 287 286 289 295 300 304 306 308 310 313 315 318 321 323 319 314 313 308 299 270 155 149 164 182 174 158 145 143 132 117 110 106 104 102 99 99 98 95 92 93 96 97 96 98 100 100 97 92 89 88 87 86 87 87 87 85 82 79 76 74 72 71 69 69 70 70 69 70 71 71 70 70 70 70
241 243 242 242 244 245 245 244 244 245 247 248 248 250 252 250 249 248 250 258 267 275 281 282 282 287 293 299 303 305 311 317 320 321 326 330 329 322 317 315 300 257 151 151 155 167 177 167 155 148 145 132 120 115 110 110 107 106 106 104 99 98 99 100 99 98 100 101 99 96 93 90 89 88 86 86 87 85 82 80 78 76 74 72 71 70 70 71 70 70 71 72 72 72 71 70 69
239 242 243 242 243 244 244 245 245 245 245 247 248 249 251 250 248 247 250 259 266 271 276 278 277 279 286 293 298 302 312 322 326 328 332 334 330 326 322 313 259 154 144 153 158 169 174 163 153 149 143 130 123 118 115 115 113 112 113 109 107 106 104 103 102 99 101 101 98 96 95 93 92 88 86 85 85 83 82 80 79 77 74 73 72 71 71 72 72 71 72 73 73 72 71 69 67
236 240 241 242 243 243 243 244 245 245 245 245 245 246 248 248 247 248 253 260 265 268 272 274 273 274 280 290 297 302 312 325 331 331 333 332 329 333 332 292 168 144 147 154 159 172 172 160 152 147 140 131 126 122 120 120 118 118 117 114 114 113 108 107 105 103 103 103 101 99 97 95 92 89 87 86 85 84 83 81 80 78 77 75 73 72 73 74 74 74 74 74 73 73 71 68 64
236 239 240 241 243 243 243 244 244 245 245 246 245 246 248 249 250 252 256 260 263 265 268 270 271 273 280 287 295 303 312 326 333 334 335 332 329 345 12 121 138 142 151 152 156 175 172 157 149 146 140 135 130 126 125 125 123 122 120 119 119 116 111 110 108 107 107 107 105 102 99 95 93 91 90 89 87 87 86 84 82 81 79 77 75 74 73 73 74 75 75 74 73 71 67 61 57
237 239 240 240 242 243 244 245 245 245 245 246 247 247 249 253 255 258 258 259 261 264 265 268 272 276 280 286 296 306 310 321 333 338 339 335 331 8 75 112 130 144 153 149 153 177 173 156 147 145 142 139 134 129 128 129 127 126 124 124 124 120 115 113 111 110 110 109 108 106 102 97 95 93 92 91 91 90 89 87 85 83 81 80 78 76 75 74 73 73 73 72 70 66 61 55 54
237 237 238 239 240 242 245 247 248 248 247 248 248 248 251 254 258 260 259 260 263 263 264 269 275 278 280 286 300 304 303 315 332 343 347 341 331 36 106 122 133 151 155 146 152 176 172 155 145 145 144 142 138 132 131 132 130 129 128 129 128 123 121 119 116 113 112 111 110 109 105 101 99 96 93 92 92 93 91 88 86 84 82 80 79 77 76 75 73 72 71 70 68 64 59 55 53
234 234 236 237 239 240 244 247 249 250 251 250 250 250 252 254 257 259 260 261 263 263 266 272 276 279 279 285 295 295 298 314 330 343 349 345 321 113 129 134 140 154 156 146 152 174 172 155 145 144 145 144 140 135 134 135 133 132 132 133 131 127 125 124 122 119 116 113 113 112 108 105 103 99 96 95 94 94 91 88 86 84 82 80 78 77 75 73 72 71 70 68 66 63 58 54 51
233 234 235 237 238 240 243 246 248 250 252 253 252 252 252 253 256 258 259 261 262 263 267 271 274 275 272 275 286 291 299 311 318 329 338 338 284 187 148 144 146 154 157 151 154 174 171 154 144 144 146 146 141 137 137 137 137 136 137 137 135 132 129 126 125 123 120 117 116 114 111 108 106 103 100 99 98 96 93 89 87 84 82 80 78 76 74 71 68 66 66 64 62 60 56 52 49
235 236 237 238 240 241 243 247 249 250 252 253 253 253 253 253 255 258 260 261 262 264 265 266 269 268 263 266 280 289 297 302 304 315 326 322 266 190 161 154 151 153 159 157 159 173 170 155 146 145 147 148 145 142 140 140 141 140 141 140 138 135 133 130 127 125 123 121 120 117 115 112 110 108 105 104 103 100 97 93 90 86 83 80 77 75 72 69 65 62 61 60 58 57 54 50 49
237 238 239 240 241 242 243 246 248 248 249 250 251 252 253 253 255 259 262 263 263 264 264 264 264 263 262 267 275 284 290 290 295 308 314 305 240 192 174 164 160 155 158 167 172 176 169 156 149 147 150 153 150 146 144 144 145 145 145 143 142 140 138 136 132 129 127 126 124 122 119 116 114 113 112 110 108 106 101 97 94 89 85 81 76 72 68 64 61 59 58 57 55 53 51 49 50
237 238 239 240 242 243 242 245 248 249 249 249 250 251 251 251 253 256 261 263 264 263 261 261 262 261 261 265 270 275 279 276 279 291 293 275 227 203 184 174 169 160 157 171 185 182 172 160 154 152 156 159 155 151 149 149 149 149 148 147 146 145 144 143 141 138 135 133 131 128 125 121 119 118 116 114 112 109 106 102 97 92 86 80 74 68 64 61 58 57 56 53 51 50 49 50 51
237 238 239 240 242 242 242 243 246 248 248 248 247 247 247 248 251 255 259 262 263 262 260 259 259 259 256 258 264 267 270 269 266 272 271 248 221 211 195 180 176 166 158 171 193 191 180 166 158 157 161 162 157 154 153 152 152 152 152 152 151 150 149 149 148 146 144 141 138 134 130 127 125 123 121 118 115 112 108 104 97 91 83 76 70 65 60 57 56 56 54 51 49 48 49 50 51
237 238 239 240 240 240 239 240 242 244 246 245 244 245 245 245 250 254 257 260 262 262 262 260 259 258 254 253 259 261 263 265 261 261 255 234 215 211 205 187 180 173 162 169 203 204 189 173 163 161 163 164 160 158 158 157 157 157 157 157 157 156 154 153 152 150 148 146 143 140 137 134 133 132 128 124 121 117 111 103 94 86 79 73 67 63 59 56 56 56 54 52 50 49 49 50 49
237 237 239 240 240 238 238 238 239 241 245 246 246 247 247 246 246 249 253 256 260 261 262 262 261 260 259 258 257 257 259 262 260 257 246 229 213 204 205 194 183 178 168 170 199 210 198 183 170 164 164 166 164 162 163 161 160 161 161 161 162 162 160 159 157 155 153 151 150 149 146 144 143 142 138 134 130 125 118 107 97 85 77 72 67 64 60 58 57 57 56 54 52 50 49 48 47
238 238 239 240 239 238 238 238 239 241 245 247 248 248 248 246 244 244 248 251 256 260 261 263 263 261 262 262 259 256 257 259 259 256 244 230 217 203 203 202 190 182 174 173 194 207 203 192 178 169 168 169 169 168 167 165 164 164 165 166 167 167 166 164 162 161 160 159 158 158 156 154 153 152 150 145 142 136 127 117 104 89 78 72 68 66 64 63 61 58 57 55 54 52 49 47 46
238 238 238 238 239 239 239 238 239 240 242 245 246 246 246 247 247 245 246 248 253 258 261 262 262 261 263 263 260 258 255 255 256 253 243 230 221 209 205 206 199 189 179 175 191 208 206 199 186 176 172 172 173 173 170 169 169 169 170 170 170 171 170 169 166 165 164 165 165 164 162 161 161 161 160 157 153 146 135 124 111 95 84 77 72 69 66 65 63 59 56 54 52 50 48 47 45
238 237 237 238 238 239 239 238 238 238 240 242 245 246 247 249 249 248 247 247 250 256 259 260 259 259 262 262 260 257 254 252 252 250 243 231 223 216 210 209 205 198 187 178 185 206 212 205 193 182 178 177 178 177 175 174 175 174 173 172 173 175 175 173 171 169 169 169 169 169 167 167 168 169 169 168 164 156 144 131 121 108 99 91 82 74 68 64 60 58 54 51 47 43 41 39 39
237 237 237 237 237 238 239 239 239 238 240 243 246 247 248 250 250 249 248 248 248 252 255 257 257 258 259 259 257 255 251 249 250 249 242 232 224 219 214 212 209 206 198 184 181 201 216 212 200 188 183 183 183 182 179 179 179 178 177 176 178 180 179 179 177 176 174 174 174 175 175 175 175 178 178 176 173 166 158 148 136 126 116 105 92 80 70 62 55 48 44 41 38 34 31 29 28
236 236 236 236 237 238 239 239 240 240 241 244 247 248 248 248 249 249 250 249 248 248 250 252 253 255 255 255 254 252 248 246 247 247 242 233 227 221 216 213 211 210 207 194 184 196 213 215 208 196 188 187 188 187 185 184 183 182 182 182 183 183 183 184 183 182 180 179 179 180 182 184 184 185 186 184 182 176 169 161 152 142 130 112 92 76 66 60 51 41 33 27 24 22 20 17 17
236 236 236 237 237 238 239 239 240 241 242 244 247 248 246 245 248 249 248 249 247 246 247 249 250 250 250 250 251 251 249 244 243 244 241 234 229 225 219 214 212 211 212 205 194 195 207 215 214 206 197 193 191 190 190 189 187 187 188 189 188 187 187 189 189 188 187 185 185 186 188 191 192 192 192 191 190 186 179 171 163 152 136 115 87 68 54 48 39 31 22 14 9 7 5 4 3
237 238 238 238 238 239 239 240 241 242 243 245 245 246 245 244 246 247 245 245 245 245 247 248 250 250 249 248 249 249 248 243 240 240 239 235 230 227 221 215 214 212 212 212 205 199 205 214 217 212 206 201 197 194 193 192 191 193 195 195 193 192 192 193 193 193 193 192 192 193 195 196 197 198 197 196 195 191 187 180 172 162 152 127 96 68 39 22 13 8 4 360 358 357 355 354 354
238 238 239 239 240 241 242 242 243 243 243 243 242 243 244 243 243 244 244 244 244 244 246 248 251 253 252 249 247 248 246 242 238 237 238 236 231 228 223 216 214 211 209 212 210 206 207 215 219 216 212 209 204 200 197 196 196 197 200 201 199 198 197 197 197 197 197 198 199 200 200 200 200 200 199 199 197 195 192 189 186 179 174 170 164 170 331 339 342 343 344 346 349 351 351 350 350
238 239 240 240 241 242 243 244 243 241 240 240 239 239 241 243 244 243 242 244 245 244 244 247 250 254 255 251 247 246 244 240 236 234 235 235 231 228 224 217 212 210 207 208 210 209 209 215 220 218 214 213 210 206 203 202 201 202 203 205 205 205 203 201 201 201 202 204 205 205 204 203 201 201 201 201 200 198 197 197 197 196 197 209 229 252 277 299 316 324 331 338 344 348 349 348 348
235 237 237 237 238 239 239 239 238 235 234 235 236 236 238 241 243 243 241 242 245 245 244 244 247 251 254 253 248 243 240 238 236 233 232 233 231 226 223 218 211 209 208 208 209 210 210 213 219 219 215 214 213 210 206 206 207 207 207 208 210 211 209 206 205 205 207 208 208 207 206 204 201 201 203 202 201 201 202 203 204 206 217 231 247 263 277 292 306 317 327 336 342 345 346 346 346
233 234 234 235 236 236 237 237 236 234 233 235 236 236 237 238 241 243 242 242 245 248 246 245 246 249 252 254 250 243 237 235 234 233 230 231 230 225 222 218 212 209 209 210 210 211 210 211 216 219 216 214 214 212 208 207 210 213 212 212 213 215 214 212 210 210 211 211 210 208 206 203 201 201 202 202 201 203 205 207 211 218 229 240 251 264 277 290 303 316 327 333 337 339 341 342 342
231 232 233 233 233 233 234 234 234 234 234 236 238 237 236 238 241 244 246 245 247 250 249 247 247 249 251 254 252 245 236 231 232 232 230 229 228 224 221 217 213 210 210 210 210 210 210 209 213 218 217 215 214 212 209 207 209 213 215 215 216 217 217 216 215 214 214 212 209 207 204 201 200 200 201 202 203 206 209 214 221 228 237 246 254 263 274 287 302 315 322 326 329 331 334 336 337
229 230 230 230 231 231 231 232 233 234 234 236 238 237 236 239 242 245 247 247 247 248 247 245 244 245 248 251 251 245 235 229 229 230 229 227 225 222 219 217 214 212 210 210 209 207 205 205 210 215 217 217 216 213 209 207 208 211 214 216 217 218 218 218 218 217 215 212 207 205 203 201 201 202 203 205 208 211 215 221 228 236 244 252 258 264 272 285 299 308 314 317 320 324 328 330 332
228 228 228 229 230 231 232 233 234 234 234 235 236 236 236 239 241 243 244 245 244 243 243 242 239 239 240 244 247 243 235 229 228 227 226 226 224 221 219 217 215 214 212 211 210 207 202 201 205 212 216 219 219 215 211 208 208 210 211 214 216 216 217 218 219 218 215 210 207 206 204 204 206 208 210 213 216 220 224 228 234 242 250 257 262 266 270 277 289 298 305 309 313 317 322 324 326
230 229 229 230 230 231 231 231 231 231 231 232 235 236 237 239 240 241 240 241 242 241 241 240 237 234 232 236 241 240 235 230 226 224 224 224 223 220 219 218 216 216 215 212 211 209 206 201 202 208 215 219 220 218 214 211 210 210 210 212 213 214 214 214 215 215 213 211 210 209 208 208 210 212 216 220 224 229 233 237 242 249 257 263 265 266 268 271 280 290 297 303 308 311 315 318 322
232 232 233 232 232 232 232 231 231 232 231 232 235 236 236 237 239 239 239 239 240 240 238 238 236 233 229 229 234 236 233 230 226 222 221 222 222 220 219 217 216 217 217 214 211 210 210 207 206 207 212 218 221 221 219 217 215 213 211 211 212 212 212 211 211 211 213 214 214 214 213 212 213 216 220 224 231 237 243 248 254 259 265 270 271 270 269 271 277 286 293 298 302 307 310 313 318
229 230 230 230 230 230 231 231 231 233 234 235 237 236 236 237 239 239 239 238 238 238 236 235 234 233 229 226 228 232 233 231 228 224 221 222 223 221 218 217 216 218 218 217 214 211 211 211 210 208 210 216 221 222 222 221 219 216 214 211 211 211 211 211 211 212 214 216 217 218 218 217 218 221 225 230 236 242 248 255 260 265 270 275 279 280 279 279 283 288 293 295 298 302 307 311 315